sat.trackr.live / text

‹ back to catalog

STARLINK-34917

NORAD 65190 · 2025-175S

PAYLOAD ACTIVE UNKNOWN

§ Identity

Operator
Country
US
Launch date
2025-08-14
Launch site
AFWTR
Launch vehicle
Mass (kg)
RCS (m²)

Purposes: comms

External: N2YO · Heavens-Above · Gunter

§ Orbital elements

Epoch: 2026-05-25T04:00:03.998880Z

Period
95.64 min
Inclination
97.4478°
Eccentricity
0.0002469
Mean motion
15.05664770 rev/d
Perigee alt
547.8 km
Apogee alt
551.2 km
Semi-major
6,927.6 km
B*
-4.2300e-4
RAAN
17.6874°
Arg perigee
76.4179°
Mean anomaly
141.9362°
Rev number
572

§ Raw data

STARLINK-349171 65190U 25175S   26145.16671295 -.00006159  00000+0 -42300-3 0  99902 65190  97.4478  17.6874 0002469  76.4179 141.9362 15.05664770  5721

JSON: /api/v1/satellites/65190 · /tle

For live sub-satellite position, see the globe view (requires WebGL).

§ Visibility from observer

Set your observer location to see the next 7 days of passes ≥ 10°. The values pass through the URL so the page stays shareable.

No JS? Fill the form by hand. The geolocation button needs JavaScript.